Tracking 25709 objects as of 23-May-2022
HD Live streaming from Space Station
objects crossing your sky now

DELTA 1 DEB

Track DELTA 1 DEB now!
10-day predictions


NORAD ID: 10211
Int'l Code: 1977-065AQ
Perigee: 869.9 km
Apogee: 1,929.2 km
Inclination: 29.5 °
Period: 113.6 minutes
Semi major axis: 7770 km
RCS: 0.0969 m2 (small)
Launch date: July 14, 1977
Source: United States (US)
Launch site: AIR FORCE EASTERN TEST RANGE (AFETR)

Note: This is SATELLITE DEBRIS
aabbcc
Your satellite tracking list
Your tracking list is empty




NASA's NSSDC Master Catalog

Two Line Element Set (TLE):
1 10211U 77065AQ  22141.81450815 -.00000584  00000-0 -13031-2 0  9991
2 10211  29.4812 335.6807 0681620 345.9257  12.3136 12.67431217921836
Source of the keplerian elements: AFSPC